Location: Ferma
(41.9500°N, 44.5167°E)
Time: 11:29:13
(UTC+00:00)

Cosmos 1269 Rocket - Pass Details

Date: 04 June 2022
Orbit: 773 x 778 km, 74.1° (Epoch: 01 July)

Event Time Altitude Azimuth Distance (km) Brightness Sun altitude
Rises 22:24:35 0° 320° (NW) 3,256 7.6 -22.7°
Reaches altitude 10° 22:28:05 10° 297° (WNW) 2,324 6.5 -22.4°
Enters shadow 22:30:10 14° 273° (W) 2,062 6.0 -22.3°
